Flag for United Kingdom Weather past 2 weeks in Southend-on-Sea, England, United Kingdom

Now
63 °F

Sunny.


Feels Like: 63 °F
Forecast: 48 / 58 °F
Wind: 15 mph from West

Location: Southend Airport-On-Sea

Current Time: May 28, 2015 at 5:56:19 PM

Latest Report: May 28, 2015 at 5:20 PM


Visibility: 10 mi

Pressure: 29.92 "Hg

Humidity: 34%

Dew point: 34 °F

Location of Southend-on-SeaLocation

Historic Weather in Southend-on-Sea — Graph

°F

Southend-on-Sea temperature yesterday

Maximum temperature yesterday: 68 °F (at 3:20 PM)
Minimum temperature yesterday: 43 °F (at 4:50 AM)
Average temperature yesterday: 57 °F

Past Weeks' High & Low Weather Summary

 TemperatureHumidityPressure
High68 °F (May 21, 4:50 PM)94% (May 14, 8:50 PM)30.33 "Hg (May 14, 8:50 PM)
Low41 °F (May 21, 5:20 AM)32% (May 21, 5:50 PM)29.56 "Hg (May 18, 1:50 PM)
Average55 °F66%30.07 "Hg
* Reported May 13 4:20 PM — May 28 4:20 PM, Southend-on-Sea, Weather by CustomWeather, © 2015

Note: Actual official high and low records may vary slightly from our data, if they occured in-between our weather recording intervals... More about our weather records

Advertising

Southend-on-Sea weather history for previous 24 hours

 ConditionsComfort  
Time TempWeatherWind HumidityBarometerVisibility
4:20 PM
Thu, May 28
63 °FSunny.16 mph34%29.92 "Hg10 mi
3:50 PM64 °FPassing clouds.15 mph34%29.95 "HgN/A
3:20 PM63 °FPassing clouds.12 mph37%29.95 "HgN/A
2:50 PM61 °FSunny.13 mph39%29.95 "Hg10 mi
2:20 PM61 °FPassing clouds.14 mph36%29.95 "HgN/A
1:50 PM64 °FPassing clouds.14 mph34%29.95 "HgN/A
1:20 PM61 °FPassing clouds.14 mph39%29.95 "HgN/A
12:50 PM63 °FPassing clouds.15 mph37%29.95 "HgN/A
12:20 PM59 °FPassing clouds.13 mph42%29.95 "HgN/A
11:50 AM61 °FPassing clouds.16 mph39%29.95 "HgN/A
11:20 AM59 °FScattered clouds.10 mph45%29.95 "HgN/A
10:50 AM61 °FScattered clouds.13 mph42%29.95 "HgN/A
10:20 AM59 °FScattered clouds.12 mph48%29.95 "HgN/A
9:50 AM61 °FPassing clouds.12 mph42%29.95 "HgN/A
9:20 AM59 °FPassing clouds.12 mph45%29.95 "HgN/A
8:50 AM57 °FPassing clouds.15 mph44%29.95 "HgN/A
8:20 AM57 °FPassing clouds.12 mph51%29.95 "HgN/A
7:50 AM57 °FPassing clouds.14 mph59%29.92 "HgN/A
7:20 AM55 °FScattered clouds.15 mph67%29.92 "HgN/A
6:50 AM55 °FPassing clouds.12 mph72%29.92 "HgN/A
6:20 AM54 °FPassing clouds.12 mph77%29.92 "HgN/A
5:50 AM54 °FPartly sunny.13 mph77%29.92 "HgN/A
5:20 AM54 °FPassing clouds.13 mph72%29.92 "HgN/A
4:50 AM54 °FPassing clouds.12 mph72%29.92 "HgN/A
3:50 AM52 °FClear.13 mph72%29.92 "Hg10 mi
2:50 AM54 °FClear.10 mph67%29.95 "Hg10 mi
1:50 AM54 °FClear.12 mph77%29.95 "Hg10 mi
12:50 AM55 °FClear.12 mph72%29.95 "Hg10 mi
11:50 PM
Wed, May 27
55 °FClear.12 mph72%29.98 "Hg10 mi
11:20 PM55 °FClear.14 mph67%29.98 "Hg10 mi
10:20 PM57 °FClear.15 mph67%29.98 "Hg10 mi
9:50 PM57 °FSunny.14 mph72%30.01 "Hg10 mi
9:20 PM57 °FSunny.15 mph67%30.01 "Hg10 mi
8:50 PM57 °FSunny.16 mph67%30.01 "Hg10 mi
8:20 PM59 °FSunny.16 mph59%30.04 "Hg10 mi
7:50 PM61 °FSunny.17 mph59%30.04 "Hg10 mi
7:20 PM61 °FSunny.17 mph59%30.04 "Hg10 mi
6:50 PM61 °FSunny.21 mph59%30.04 "Hg10 mi
6:20 PM64 °FSunny.20 mph56%30.07 "Hg10 mi
5:50 PM66 °FSunny.16 mph52%30.07 "Hg10 mi
5:20 PM66 °FSunny.16 mph43%30.07 "Hg10 mi
Weather by CustomWeather, © 2015

See weather overviewHow to use our weather pages